Valdosta Regional, GA

10:42 AM EDT on May 22, 2018 (GMT -0400)
Valdosta Regional

Weather History for KVLD - December, 2011

Change the Weather History Date:

Saturday, December 10, 2011

  Actual Average Record
Temperature  
Mean Temperature 54 °F 54 °F  
Max Temperature 62 °F 66 °F 82 °F (1997)
Min Temperature 45 °F 42 °F 26 °F (2017)
Degree Days  
Heating Degree Days 12 11  
Month to date heating degree days 105  
Since 1 July heating degree days 336  
Growing Degree Days 4 (Base 50)    
Moisture  
Dew Point 41 °F    
Average Humidity 60    
Maximum Humidity 79    
Minimum Humidity 38    
Precipitation  
Precipitation 0.00 in 0.11 in 0.81 in (2013)
Month to date precipitation 1.09  
Year to date precipitation 48.52  
Sea Level Pressure  
Sea Level Pressure 30.28 in    
Wind  
Wind Speed 5 mph (NNE)    
Max Wind Speed 13 mph    
Max Gust Speed -    
Visibility 10 miles    
Events      
T = Trace of Precipitation, MM = Missing Value Source: NWS Daily Summary

Daily Weather History Graph

Daily Weather History Graph

Search for Another Location

Airport or City:

Astronomy

Dec. 10, 2011 Rise Set
Actual Time 7:19 AM EST 5:31 PM EST
Civil Twilight 6:53 AM EST 5:58 PM EST
Nautical Twilight 6:23 AM EST 6:28 PM EST
Astronomical Twilight 5:53 AM EST 6:57 PM EST
Moon 5:45 PM EST (12/10) 7:17 AM EST (12/10)
Length of Visible Light 11h 05m
Length of Day
10h 12m
Full, 100% of the Moon is Illuminated
Dec 10
Full
Dec 17
Last Quarter
Dec 24
New
Jan 1
First Quarter
Jan 9
Full

Hourly Weather History & Observations

Time (EST) Temp. Windchill Dew Point Humidity Pressure Visibility Wind Dir Wind Speed Gust Speed Precip Events Conditions
12:49 AM 57.2 °F - 46.4 °F 67% 30.21 in 10.0 mi NE 4.6 mph - N/A   Overcast
12:53 AM 57.0 °F - 46.0 °F 67% 30.24 in 10.0 mi Calm Calm - N/A   Overcast
1:33 AM 55.4 °F - 46.4 °F 72% 30.22 in 10.0 mi Calm Calm - N/A   Mostly Cloudy
1:53 AM 55.9 °F - 46.0 °F 69% 30.23 in 10.0 mi Calm Calm - N/A   Overcast
2:09 AM 55.4 °F - 46.4 °F 72% 30.21 in 10.0 mi Calm Calm - N/A   Mostly Cloudy
2:33 AM 55.4 °F - 46.4 °F 72% 30.21 in 10.0 mi Calm Calm - N/A   Mostly Cloudy
2:53 AM 53.6 °F - 46.4 °F 77% 30.21 in 10.0 mi Calm Calm - N/A   Overcast
3:53 AM 55.9 °F - 45.0 °F 67% 30.24 in 10.0 mi Variable 5.8 mph - N/A   Overcast
4:37 AM 55.4 °F - 42.8 °F 63% 30.22 in 10.0 mi North 4.6 mph - N/A   Overcast
4:53 AM 55.9 °F - 44.1 °F 64% 30.25 in 10.0 mi Calm Calm - N/A   Overcast
5:06 AM 55.4 °F - 42.8 °F 63% 30.22 in 10.0 mi North 10.4 mph - N/A   Overcast
5:53 AM 55.9 °F - 42.1 °F 60% 30.25 in 10.0 mi North 8.1 mph - N/A   Overcast
6:53 AM 55.9 °F - 43.0 °F 62% 30.27 in 10.0 mi North 9.2 mph - N/A   Overcast
7:53 AM 55.9 °F - 43.0 °F 62% 30.28 in 10.0 mi NNE 8.1 mph - N/A   Overcast
8:53 AM 57.0 °F - 41.0 °F 55% 30.31 in 10.0 mi North 11.5 mph - N/A   Overcast
9:53 AM 57.0 °F - 39.0 °F 51% 30.32 in 10.0 mi NNE 8.1 mph - N/A   Overcast
10:36 AM 57.2 °F - 37.4 °F 48% 30.30 in 10.0 mi NNE 11.5 mph - N/A   Overcast
10:53 AM 57.9 °F - 37.9 °F 47% 30.33 in 10.0 mi NNE 8.1 mph - N/A   Overcast
11:53 AM 59.0 °F - 37.0 °F 44% 30.31 in 10.0 mi NNE 12.7 mph - N/A   Overcast
12:53 PM 62.1 °F - 37.9 °F 41% 30.29 in 10.0 mi North 11.5 mph - N/A   Mostly Cloudy
1:53 PM 61.0 °F - 36.0 °F 39% 30.29 in 10.0 mi NNE 11.5 mph - N/A   Overcast
2:53 PM 61.0 °F - 35.1 °F 38% 30.28 in 10.0 mi NNE 12.7 mph - N/A   Mostly Cloudy
3:53 PM 61.0 °F - 36.0 °F 39% 30.28 in 10.0 mi NNE 10.4 mph - N/A   Clear
4:53 PM 59.0 °F - 37.0 °F 44% 30.30 in 10.0 mi NNE 8.1 mph - N/A   Clear
5:53 PM 55.9 °F - 39.0 °F 53% 30.30 in 10.0 mi NNE 5.8 mph - N/A   Clear
6:53 PM 48.0 °F - 39.0 °F 71% 30.32 in 10.0 mi Calm Calm - N/A   Clear
7:53 PM 46.0 °F - 37.9 °F 73% 30.33 in 10.0 mi Calm Calm - N/A   Clear
8:53 PM 48.0 °F - 39.0 °F 71% 30.34 in 10.0 mi NNE 4.6 mph - N/A   Clear
9:53 PM 48.0 °F - 37.9 °F 68% 30.35 in 10.0 mi NE 3.5 mph - N/A   Clear
10:53 PM 45.0 °F 43.5 °F 37.9 °F 76% 30.36 in 10.0 mi NNE 3.5 mph - N/A   Clear
11:53 PM 46.0 °F 42.5 °F 39.9 °F 79% 30.35 in 10.0 mi NNE 6.9 mph - N/A   Clear